SCP
0 0 0 0 0 0 0 0 0 0 0 0 0 0 0 0 0 0 0 0 0 0 0 0 0 -0 -0 -0 -0 0 0 0 0 0 0 0 0 0 0 0 0 0 0 0
0 0 0 0 0 0 0 0 0 0 0 0 0 0 0 0 0 0 0 0 0 0 0 0 -0 -0 0 0 0 0 0 0 0 0 0 0 0 0 0 0 0 0 0 0
0 0 0 0 0 0 0 0 0 0 0 0 0 0 0 0 0 0 0 0 0 0 0 -0 0 0 0 0 0 0 0 0 0 0 0 0 0 0 0 0 0 0 0 0
0 0 0 0 0 0 0 0 0 0 0 0 0 0 0 0 0 0 0 0 0 0 0 0 0 0 0 0 0 0 0 0 0 0 0 0 0 0 0 0 0 0 0 0
0 0 0 0 0 0 0 0 0 0 0 0 0 0 0 0 0 0 -0 0 0 -0 0 0 0 0 0 0 0 0 0 0 0 0 0 0 0 0 0 0 0 0 0 0
0 0 0 0 0 0 0 0 0 0 0 0 0 0 0 0 0 -0 -0 0 0 0 0 0 0 0 0 0 0 0 0 0 0 0 0 0 0 0 0 0 0 0 0 0
-0 0 0 0 0 0 0 0 0 0 0 0 0 0 0 0 0 -0 -0 0 0 0 0 0 0 0 0 0 0 0 0 0 0 0 0 0 0 0 0 0 0 0 0 0
0 0 0 0 0 0 0 0 0 0 0 0 0 0 0 0 0 0 0 0 0 0 0 0 0 0 0 0 0 0 0 0 0 0 0 0 0 0 0 0 0 0 0 0
0 0 0 0 0 0 0 0 0 0 0 0 0 0 0 0 0 0 0 0 0 0 0 0 0 0 0 0 0 0 0 0 0 0 0 0 0 0 0 0 0 0 0 0
0 0 0 0 0 0 0 0 0 0 0 0 0 0 0 0 0 0 0 0 0 0 0 0 0 0 0 0 0 0 0 0 0 0 0 0 0 0 0 0 0 0 0 0
0 0 0 0 0 0 0 -0 0 0 0 0 0 0 0 0 0 0 0 0 0 0 0 0 0 0 0 0 0 0 0 0 0 0 0 0 0 0 0 0 0 0 0 0
0 0 0 0 0 0 0 0 0 0 0 0 0 0 0 0 0 0 0 0 0 0 0 0 0 0 0 0 0 0 0 0 0 0 0 0 0 0 0 0 0 0 0 0
0 0 0 0 0 0 0 0 -0 0 0 0 0 0 0 0 0 0 0 0 0 0 0 0 0 0 0 0 0 0 0 0 0 0 0 0 0 0 0 0 0 0 0 0
0 0 0 0 0 0 0 -0 -0 0 0 0 0 0 0 0 0 0 0 0 0 0 0 0 0 0 0 0 0 0 0 0 0 0 0 0 0 0 0 0 0 0 0 0
0 0 0 0 0 0 -0 -0 -0 0 -0 0 0 0 0 0 0 0 0 0 0 0 0 0 0 0 0 0 0 0 0 0 0 0 0 0 0 0 0 0 0 0 0 0
0 0 0 0 0 -0 -0 -0 -0 0 0 0 0 0 0 0 0 0 0 0 0 0 0 0 0 0 0 0 0 0 0 0 0 0 0 0 0 0 0 0 0 0 0 0
0 0 0 0 0 0 0 0 0 0 0 0 0 0 0 0 0 0 0 0 0 0 0 0 0 0 0 0 0 0 0 0 0 0 0 0 0 0 0 0 0 0 0 0
0 0 0 0 0 0 0 0 0 0 0 0 0 0 0 0 0 0 0 0 0 0 0 0 0 0 0 0 0 0 0 0 0 0 0 0 0 0 0 0 0 0 0 0
0 0 0 0 0 0 0 0 0 0 0 0 0 0 0 0 0 0 0 0 0 0 0 0 0 0 0 0 0 0 0 0 0 0 0 0 0 0 0 0 0 0 0 0
0 0 0 0 0 0 0 0 0 0 0 0 0 0 0 0 0 0 0 0 0 0 0 0 0 0 0 0 0 0 0 0 0 0 0 0 0 0 0 0 0 0 0 0
0 0 0 0 0 0 0 0 0 0 0 0 0 0 0 0 0 0 0 0 0 0 0 0 0 0 0 0 0 0 0 0 0 0 0 0 0 0 0 0 0 0 0 0
0 0 0 0 0 0 0 0 0 0 0 0 0 0 0 0 0 0 0 0 0 0 0 0 0 0 0 0 0 0 0 0 0 0 0 0 0 0 0 0 0 0 0 0
0 0 0 0 0 0 0 0 0 0 0 0 0 0 0 0 0 0 0 0 0 0 0 0 0 0 0 0 0 0 0 0 0 0 0 0 0 0 0 0 0 0 0 0
0 0 0 0 0 0 0 0 0 0 0 0 0 0 0 0 0 0 0 0 0 0 0 0 0 0 0 0 0 0 0 0 0 0 0 0 0 0 0 0 0 0 0 0
0 0 0 0 0 0 0 0 0 0 0 0 0 0 0 0 0 0 0 0 0 0 0 0 0 0 0 0 0 0 0 0 0 0 0 0 0 0 0 0 0 0 0 0
0 0 0 0 0 0 0 0 0 0 0 0 0 0 0 0 0 0 0 0 0 0 0 0 0 0 0 0 0 0 0 0 0 0 0 0 0 0 0 0 0 0 0 0
Wind_Speed
2 3 2 6 6 4 4 4 3 1 1 3 4 5 4 3 3 3 3 4 5 5 4 5 5 5 4 4 3 3 3 2 1 1 1 1 2 2 2 3 4 4 4 4
3 2 6 3 3 4 4 4 3 3 2 3 2 2 3 4 4 4 4 4 5 4 4 5 5 5 6 5 5 4 4 3 2 1 1 1 0 1 2 3 3 4 4 4
4 5 2 2 3 4 2 4 5 5 3 4 2 1 1 1 2 3 5 4 4 7 7 7 7 7 6 7 6 5 4 4 2 1 1 1 2 2 2 3 3 4 5 4
3 3 1 1 1 3 0 1 6 7 5 3 4 1 2 1 3 4 5 5 6 6 6 6 7 7 7 7 5 5 5 4 3 2 1 1 1 2 3 2 3 5 4 4
3 1 1 1 2 4 4 7 8 6 5 3 4 2 6 2 2 4 5 6 6 6 7 7 7 7 6 5 5 5 4 4 3 3 2 2 2 3 2 3 4 4 4 4
3 1 2 1 4 6 8 7 7 6 5 3 2 1 5 3 5 4 4 6 6 6 6 6 5 4 3 3 3 4 4 4 3 3 3 3 4 4 4 4 4 4 3 3
6 3 0 3 5 3 5 6 5 5 4 3 1 1 8 6 6 6 6 6 6 5 5 5 5 5 5 4 4 4 4 3 3 3 4 4 5 5 5 5 4 4 3 3
2 5 2 2 5 6 3 7 6 4 3 3 2 4 8 5 5 5 6 5 4 4 5 6 6 6 5 5 5 4 4 4 4 4 4 4 5 4 4 5 4 4 4 5
3 4 3 1 2 8 6 3 5 7 2 1 4 6 8 3 3 4 4 4 5 4 5 5 5 5 5 5 5 5 5 4 5 5 5 5 5 5 5 5 5 4 5 5
5 2 4 3 4 4 5 8 6 6 4 1 4 4 5 6 6 5 5 6 6 4 4 5 5 4 3 3 3 3 4 5 5 5 5 4 5 5 5 4 5 6 6 5
3 2 4 3 1 2 3 5 6 5 5 5 3 8 8 8 8 8 8 7 6 7 6 5 4 2 2 2 3 3 4 4 5 5 5 5 5 5 4 5 6 6 6 6
3 5 1 4 3 1 1 5 7 5 3 4 4 10 6 7 7 7 7 6 5 6 4 3 3 2 2 3 4 4 5 5 6 5 4 5 5 5 5 6 6 6 6 7
5 5 3 7 8 5 2 3 4 6 6 5 4 9 4 2 4 5 6 6 5 4 4 2 2 3 4 5 5 5 5 6 5 4 5 5 5 5 6 7 7 6 7 7
7 5 6 5 6 3 4 2 5 6 5 5 8 8 6 5 6 6 6 6 4 4 4 4 4 5 5 5 5 5 6 5 5 4 5 5 6 6 6 7 7 7 7 7
5 4 4 5 5 3 5 6 6 7 8 9 8 8 10 9 9 7 5 4 4 5 6 7 6 6 5 5 5 5 6 5 4 4 5 6 6 6 6 7 7 7 7 8
4 4 3 3 2 3 5 7 6 6 5 6 5 9 8 4 3 3 5 6 7 8 8 8 7 7 6 6 6 6 6 5 4 5 6 6 6 6 6 7 7 7 8 8
3 6 4 4 5 4 5 4 4 4 5 8 9 9 3 4 8 9 9 8 9 9 9 8 8 8 7 7 6 6 6 5 4 5 6 6 6 6 7 7 7 8 8 8
7 5 4 1 2 3 9 4 5 4 5 7 6 5 6 8 6 5 6 9 10 9 9 9 8 7 6 6 5 5 5 4 5 6 6 6 6 7 7 7 8 8 7 8
5 8 5 3 2 5 10 4 4 4 5 6 7 6 4 2 3 5 7 9 11 11 9 8 8 7 6 6 6 4 5 5 5 6 7 7 6 7 8 8 9 8 7 8
5 5 5 4 4 6 11 4 3 4 5 6 7 8 7 7 3 9 8 10 11 9 7 7 6 5 6 6 4 4 6 5 7 7 7 6 6 7 8 9 9 8 7 9
3 3 3 4 5 9 9 2 5 3 10 6 10 10 11 12 13 8 5 8 10 10 9 7 6 6 7 6 4 6 6 8 8 6 6 6 7 7 8 8 8 8 8 9
3 3 3 4 3 8 4 6 8 11 6 4 9 11 13 15 11 7 6 8 9 9 8 8 7 7 7 5 5 7 8 8 6 5 6 7 7 7 7 7 8 8 8 8
6 8 6 9 9 8 4 8 8 4 5 7 8 11 14 13 12 11 10 10 9 10 9 7 8 8 6 6 7 8 9 6 5 5 6 7 7 7 7 8 8 8 7 6
4 3 4 5 9 8 8 7 8 7 10 10 9 10 11 14 14 13 11 10 9 9 8 7 8 8 8 7 8 9 8 5 5 6 7 6 7 8 7 6 6 7 7 7
6 4 3 6 9 9 8 6 7 8 8 9 8 8 11 13 13 13 11 11 10 9 8 7 8 9 10 8 8 8 7 5 6 6 6 6 6 7 8 7 6 7 8 8
3 4 4 7 7 4 6 9 11 8 8 7 6 6 6 9 13 11 10 9 9 8 7 7 8 9 9 7 7 7 6 6 6 6 6 5 5 6 6 7 8 9 11 13
Wind_Direction
92 83 218 226 200 184 163 155 158 147 84 85 118 141 173 188 207 197 192 180 179 184 187 186 191 193 191 198 195 189 180 180 141 87 66 37 354 339 343 345 353 353 353 357
39 268 237 213 165 141 140 134 138 88 65 89 116 138 175 193 215 209 202 204 200 190 191 201 206 206 205 207 209 207 205 201 189 157 148 163 257 295 294 313 332 346 350 348
208 245 217 174 169 148 149 170 167 144 100 56 73 15 198 225 244 235 216 209 207 203 205 210 212 214 214 216 211 208 209 209 204 169 106 55 17 347 337 329 327 332 334 337
249 263 200 213 220 149 224 203 132 120 104 36 40 328 284 249 267 231 222 217 221 222 216 217 218 221 221 222 208 204 205 209 209 181 172 188 227 268 267 279 293 307 315 323
270 245 203 236 262 133 97 74 86 92 96 62 33 34 295 339 277 253 237 230 229 228 223 224 224 223 223 212 199 199 199 212 212 198 195 208 240 248 273 286 294 300 308 313
262 253 192 148 51 102 120 78 61 51 60 31 1 44 288 250 230 249 241 230 229 230 229 228 226 210 213 194 183 182 190 215 219 218 219 220 242 260 277 286 290 294 298 300
344 348 131 120 94 61 85 85 40 7 14 278 309 278 257 253 230 226 238 241 235 232 220 214 206 197 198 189 188 184 189 222 234 236 242 238 241 247 252 264 268 277 286 288
22 317 268 184 160 159 156 131 152 194 217 274 321 258 259 259 258 240 239 242 239 231 216 213 204 195 193 194 189 186 199 229 243 244 251 252 248 241 247 252 252 257 260 268
167 271 293 216 157 133 137 141 142 120 111 32 290 288 299 262 262 248 238 233 238 232 211 200 190 187 191 193 196 199 208 233 247 247 253 260 256 247 251 259 257 258 260 270
160 242 301 321 79 53 121 137 102 106 128 259 299 278 252 252 242 240 232 230 233 210 196 192 191 196 202 208 214 216 218 234 248 253 254 259 258 256 257 264 267 266 269 271
130 155 314 8 82 167 119 95 101 102 141 149 244 268 227 219 220 220 227 225 211 202 203 204 206 211 215 226 231 237 243 250 258 259 259 266 267 268 269 267 268 271 275 276
123 115 302 291 293 286 160 154 147 143 186 165 179 265 257 230 232 220 225 222 209 206 208 211 216 222 235 245 251 253 256 256 258 260 264 266 271 276 275 272 273 275 275 276
132 101 46 351 344 353 36 112 123 119 114 149 175 263 290 261 227 220 221 221 212 210 210 215 224 233 243 250 256 260 261 260 265 265 267 274 277 275 272 273 277 278 277 279
115 109 150 189 225 261 295 200 154 134 147 193 221 249 282 249 229 227 223 219 210 214 216 218 233 243 248 253 256 263 270 267 266 265 265 270 272 270 270 274 277 277 277 278
112 151 205 230 237 235 250 252 194 191 188 187 227 229 247 232 220 221 218 209 209 223 224 225 231 242 250 257 262 262 267 270 264 264 268 268 271 272 272 274 276 278 277 278
110 159 177 281 266 266 259 261 218 206 195 213 244 259 249 237 187 215 219 207 218 229 231 232 235 239 243 247 254 260 263 264 258 260 266 272 277 276 275 275 279 281 280 279
127 138 137 261 304 356 301 265 213 210 205 186 211 239 216 187 204 216 216 210 219 227 228 229 231 230 235 240 242 249 255 262 259 261 268 274 274 275 276 280 283 282 281 279
138 127 139 186 31 259 252 251 216 218 236 208 226 241 208 210 218 229 210 205 220 225 226 228 228 230 235 235 238 245 253 254 257 265 270 273 273 276 279 281 281 281 278 278
140 135 128 135 187 276 294 274 179 181 262 218 216 231 198 109 47 297 230 208 216 218 217 220 218 216 224 234 236 241 254 255 260 264 267 270 271 276 282 283 282 282 281 282
76 102 120 138 169 231 252 262 164 117 277 238 196 200 169 129 175 254 235 208 220 224 219 218 213 208 225 236 224 229 249 254 257 259 262 268 269 272 277 279 281 280 278 280
47 71 143 174 211 255 255 226 128 165 243 230 194 193 173 186 208 224 220 205 211 214 215 209 199 208 224 225 204 229 246 250 252 256 262 269 270 271 274 276 275 280 283 285
188 177 193 150 188 260 250 149 184 219 236 218 204 198 194 214 228 232 233 221 211 211 211 198 197 219 227 212 203 230 244 249 253 254 260 269 274 276 281 277 281 281 281 285
199 192 187 187 216 242 237 218 240 237 241 237 216 214 205 217 229 229 227 224 217 212 207 196 199 220 232 217 206 227 244 245 245 250 260 270 280 281 278 277 282 287 283 279
265 173 168 242 266 268 272 262 262 238 233 244 230 219 201 212 226 226 224 219 215 211 205 197 196 216 233 228 218 227 241 238 235 251 265 274 283 289 288 279 273 276 280 281
241 193 208 257 274 299 303 303 301 295 277 270 260 231 217 217 228 225 221 217 211 206 199 191 198 215 230 231 230 233 233 223 234 250 264 275 279 283 290 287 276 273 267 258
248 200 203 241 253 249 290 321 330 322 310 300 290 282 256 225 235 234 229 221 206 200 190 192 206 221 232 232 238 238 224 212 225 250 264 270 279 284 286 294 300 278 263 269